星链-32598 (STARLINK-32598)

导读 | 星芒AI

STARLINK-32598 是 SpaceX Starlink 卫星互联网项目中的一颗低轨卫星,属于第三代星链卫星(Starlink Gen2)系列。该卫星于2024年发射,旨在为全球用户提供高速、低延迟的宽带互联网服务。它运行在约540公里的近地轨道,配备先进通信设备和激光链路,以提升网络效率和覆盖范围。作为星链星座的一部分,STARLINK-32598 有助于扩展 SpaceX 在全球卫星互联网市场的影响力,并推动偏远地区网络接入的普及。

基本信息
目录编号:
62046
目录名称:
STARLINK-32598
国际标识:
2024-216Q
轨道中心:
EARTH
卫星名称:
星链-32598
卫星全名:
星链-32598 (STARLINK-32598)
卫星状态:
在轨 (已飞行348 天)
发射日期:
2024-11-21 UTC
国别 :
美国 (US)
星等 :
--
轨道信息
数据来源 国际轨道数据
星历时间: 2025-11-04T10:21:47+0800
8小时前
查看轨道信息
半长轴: 6861.159km
偏心率: 0.0001387
轨道倾角: 43.004°
近地点辐角 267.425°
升交点赤经 245.119°
平近点角 92.644°
近地点: 482.072km
远地点: 483.976km
周期: 94.266分钟
每日圈数: 15.275891
详细信息
固有亮度:
5
最大亮度:
2.5
卫星平台:
Starlink V1.0
覆盖范围:
全球
运营商:
太空探索技术公司
运营商所在国:
美国
制造商(研发单位):
太空探索技术公司
制造商所在国:
美国
使用方式:
暂无
卫星简介
Starlink 计划是 SpaceX 推出的全球卫星互联网项目,通过发射低轨道卫星,为全球尤其是偏远地区提供高速、低延迟的互联网服务。自 2019 年起,Starlink 已部署数千颗卫星,旨在缩小全球数字鸿沟,推动互联网普及。该项目还为军事、航空等行业提供通信支持,带来广泛经济效益。
2D轨道图
3D轨道图
轨道高度分析图
轨道倾角分析图
轨道综合分析图
查看轨道综合分析图